,,,PA_Meas_PMT16A,,PR_Meas_QMR101_102,,RH_Meas_QMH101,,SR_Meas_QMS101,,TA_Meas_QMH101,,GenWind,,GenWind,
date,time,status,PA,status,PR,status,RH,status,SR,status,TA,status,DirAvg,status,SpdAvg,
2009-12-29, 00:00:04,VALID,999.47,VALID,0,VALID,88.8011,VALID,0,VALID,24.3824,VALID,308,VALID,1.04727,
2009-12-29, 00:01:04,VALID,999.44,VALID,0,VALID,88.6638,VALID,0,VALID,24.3824,VALID,327,VALID,0.933594,
2009-12-29, 00:02:04,VALID,999.432,VALID,0,VALID,88.6714,VALID,0,VALID,24.3824,VALID,296,VALID,0.355859,
2009-12-29, 00:03:04,VALID,999.399,VALID,0,VALID,88.7096,VALID,0,VALID,24.3824,VALID,307,VALID,0.790234,
2009-12-29, 00:04:04,VALID,999.398,VALID,0,VALID,89.0148,VALID,0,VALID,24.3629,VALID,313,VALID,0.516016,
2009-12-29, 00:05:04,VALID,999.371,VALID,0,VALID,88.702,VALID,0,VALID,24.3647,VALID,320,VALID,0.592578,
2009-12-29, 00:06:04,VALID,999.36,VALID,0,VALID,89.0377,VALID,0,VALID,24.3647,VALID,283,VALID,0.272266,
2009-12-29, 00:07:04,VALID,999.336,VALID,0,VALID,88.763,VALID,0,VALID,24.3452,VALID,318,VALID,0.677734,
2009-12-29, 00:08:04,VALID,999.311,VALID,0,VALID,88.9995,VALID,0,VALID,24.3238,VALID,326,VALID,0.614062,
2009-12-29, 00:09:04,VALID,999.287,VALID,0,VALID,88.8469,VALID,0,VALID,24.3238,VALID,326,VALID,0.11875,
2009-12-29, 00:10:04,VALID,999.277,VALID,0,VALID,88.9614,VALID,0,VALID,24.3043,VALID,318,VALID,0.0921875,
2009-12-29, 00:11:04,VALID,999.259,VALID,0,VALID,89.0758,VALID,0,VALID,24.3043,VALID,324,VALID,0.601953,
2009-12-29, 00:12:04,VALID,999.26,VALID,0,VALID,89.236,VALID,0,VALID,24.3257,VALID,264,VALID,0.396484,
2009-12-29, 00:13:04,VALID,999.246,VALID,0,VALID,88.8317,VALID,0,VALID,24.3257,VALID,331,VALID,0.595312,
2009-12-29, 00:14:04,VALID,999.289,VALID,0,VALID,88.9309,VALID,0,VALID,24.3043,VALID,332,VALID,0.591406,
2009-12-29, 00:15:04,VALID,999.273,VALID,0,VALID,89.1979,VALID,0,VALID,24.3238,VALID,333,VALID,0.446875,
2009-12-29, 00:16:04,VALID,999.304,VALID,0,VALID,89.2818,VALID,0.112286,VALID,24.3043,VALID,333,VALID,0.189453,
2009-12-29, 00:17:04,VALID,999.27,VALID,0,VALID,89.0682,VALID,0.112286,VALID,24.3062,VALID,338,VALID,0.617578,
2009-12-29, 00:18:04,VALID,999.268,VALID,0,VALID,89.4191,VALID,0,VALID,24.3043,VALID,341,VALID,0.334375,
2009-12-29, 00:19:04,VALID,999.218,VALID,0,VALID,89.1903,VALID,0,VALID,24.3062,VALID,325,VALID,0.909766,
2009-12-29, 00:20:04,VALID,999.208,VALID,0,VALID,89.3276,VALID,0,VALID,24.2848,VALID,348,VALID,0.607422,
2009-12-29, 00:21:04,VALID,999.174,VALID,0,VALID,89.1597,VALID,0,VALID,24.2866,VALID,341,VALID,0.463281,
2009-12-29, 00:22:04,VALID,999.108,VALID,0,VALID,89.2437,VALID,0,VALID,24.2653,VALID,301,VALID,0.464844,
2009-12-29, 00:23:04,VALID,999.079,VALID,0,VALID,89.2284,VALID,0,VALID,24.3062,VALID,329,VALID,0.722656,
2009-12-29, 00:24:04,VALID,999.063,VALID,0,VALID,89.2818,VALID,0,VALID,24.2653,VALID,333,VALID,0.940625,
2009-12-29, 00:25:04,VALID,999.043,VALID,0,VALID,89.2589,VALID,0,VALID,24.2653,VALID,313,VALID,0.463672,
2009-12-29, 00:26:04,VALID,999.031,VALID,0,VALID,89.4191,VALID,0,VALID,24.2653,VALID,316,VALID,0.592578,
2009-12-29, 00:27:04,VALID,998.999,VALID,0,VALID,89.3428,VALID,0,VALID,24.2866,VALID,316,VALID,0.514844,
2009-12-29, 00:28:04,VALID,999.004,VALID,0,VALID,89.4191,VALID,0,VALID,24.2458,VALID,316,VALID,0.235156,
2009-12-29, 00:29:04,VALID,998.989,VALID,0,VALID,89.5641,VALID,0,VALID,24.2671,VALID,316,VALID,0.00351562,
2009-12-29, 00:30:04,VALID,998.992,VALID,0,VALID,89.6709,VALID,0,VALID,24.2067,VALID,316,VALID,0,
2009-12-29, 00:31:04,VALID,998.969,VALID,0,VALID,89.7625,VALID,0,VALID,24.1872,VALID,316,VALID,0,
2009-12-29, 00:32:04,VALID,998.984,VALID,0,VALID,89.6557,VALID,0,VALID,24.1872,VALID,320,VALID,0.671875,
2009-12-29, 00:33:04,VALID,998.964,VALID,0,VALID,89.6328,VALID,0,VALID,24.1677,VALID,336,VALID,0.345703,
2009-12-29, 00:34:04,VALID,998.935,VALID,0,VALID,89.7091,VALID,0,VALID,24.1891,VALID,336,VALID,0.0253906,
2009-12-29, 00:35:04,VALID,998.924,VALID,0,VALID,89.8083,VALID,0,VALID,24.1891,VALID,336,VALID,0.358984,
2009-12-29, 00:36:04,VALID,998.855,VALID,0,VALID,89.854,VALID,0,VALID,24.1891,VALID,336,VALID,0.289844,
2009-12-29, 00:37:04,VALID,998.862,VALID,0,VALID,89.8617,VALID,0,VALID,24.1482,VALID,1,VALID,0.503906,
2009-12-29, 00:38:04,VALID,998.811,VALID,0,VALID,89.8311,VALID,0,VALID,24.15,VALID,357,VALID,0.611719,
2009-12-29, 00:39:04,VALID,998.813,VALID,0,VALID,89.6862,VALID,0,VALID,24.1305,VALID,351,VALID,1.00664,
2009-12-29, 00:40:04,VALID,998.843,VALID,0,VALID,89.2742,VALID,0,VALID,24.1092,VALID,343,VALID,1.54531,
2009-12-29, 00:41:04,VALID,998.834,VALID,0,VALID,89.6557,VALID,0,VALID,24.1287,VALID,309,VALID,0.411719,
2009-12-29, 00:42:04,VALID,998.833,VALID,0,VALID,89.8083,VALID,0,VALID,24.1287,VALID,309,VALID,0,
2009-12-29, 00:43:04,VALID,998.796,VALID,0,VALID,89.6633,VALID,0,VALID,24.1092,VALID,309,VALID,0,
2009-12-29, 00:44:04,VALID,998.828,VALID,0,VALID,89.7167,VALID,0,VALID,24.0897,VALID,309,VALID,0,
2009-12-29, 00:45:04,VALID,998.77,VALID,0,VALID,89.6557,VALID,0,VALID,24.0701,VALID,5,VALID,0.54375,
2009-12-29, 00:46:04,VALID,998.78,VALID,0,VALID,89.4573,VALID,0,VALID,24.0701,VALID,7,VALID,0.555859,
2009-12-29, 00:47:04,VALID,998.757,VALID,0,VALID,89.648,VALID,0,VALID,24.0701,VALID,7,VALID,0.553516,
2009-12-29, 00:48:04,VALID,998.765,VALID,0,VALID,89.6786,VALID,0,VALID,24.0701,VALID,7,VALID,0.428516,
2009-12-29, 00:49:04,VALID,998.752,VALID,0,VALID,89.999,VALID,0,VALID,24.0701,VALID,7,VALID,0.427734,
2009-12-29, 00:50:04,VALID,998.711,VALID,0,VALID,89.9685,VALID,0,VALID,24.0311,VALID,343,VALID,0.194141,
2009-12-29, 00:51:04,VALID,998.723,VALID,0,VALID,89.9609,VALID,0,VALID,24.0311,VALID,282,VALID,0.403516,
2009-12-29, 00:52:04,VALID,998.681,VALID,0,VALID,89.9151,VALID,0,VALID,24.0311,VALID,282,VALID,0.468359,
2009-12-29, 00:53:04,VALID,998.657,VALID,0,VALID,89.9151,VALID,0,VALID,24.0311,VALID,282,VALID,0.0574219,
2009-12-29, 00:54:04,VALID,998.644,VALID,0,VALID,89.8846,VALID,0,VALID,24.0311,VALID,282,VALID,0.173828,
2009-12-29, 00:55:04,VALID,998.603,VALID,0,VALID,89.7396,VALID,0,VALID,24.0116,VALID,282,VALID,0.0195313,
2009-12-29, 00:56:04,VALID,998.614,VALID,0,VALID,89.8846,VALID,0,VALID,24.0116,VALID,282,VALID,0,
2009-12-29, 00:57:04,VALID,998.58,VALID,0,VALID,89.8693,VALID,0,VALID,24.0116,INVALID,360,VALID,0,
2009-12-29, 00:58:04,VALID,998.593,VALID,0,VALID,89.648,VALID,0,VALID,24.0134,VALID,249,VALID,0,
2009-12-29, 00:59:04,VALID,998.594,VALID,0,VALID,89.7243,VALID,0,VALID,23.9921,INVALID,360,VALID,0,
2009-12-29, 01:00:04,VALID,998.558,VALID,0,VALID,90.0524,VALID,0,VALID,24.0134,INVALID,360,VALID,0,
2009-12-29, 01:01:04,VALID,998.582,VALID,0,VALID,90.1287,VALID,0,VALID,24.0134,VALID,249,VALID,0,
2009-12-29, 01:02:04,VALID,998.595,VALID,0,VALID,90.2355,VALID,0,VALID,23.9921,INVALID,360,VALID,0,
2009-12-29, 01:03:04,VALID,998.6,VALID,0,VALID,90.2355,VALID,0,VALID,23.9726,INVALID,360,VALID,0,
2009-12-29, 01:04:04,VALID,998.609,VALID,0,VALID,90.1745,VALID,0,VALID,23.9744,INVALID,360,VALID,0,
2009-12-29, 01:05:04,VALID,998.623,VALID,0,VALID,90.0524,VALID,0,VALID,23.9744,VALID,249,VALID,0,
2009-12-29, 01:06:04,VALID,998.609,VALID,0,VALID,90.1592,VALID,0,VALID,23.9549,VALID,257,VALID,0,
2009-12-29, 01:07:04,VALID,998.6,VALID,0,VALID,90.1287,VALID,0,VALID,23.9354,VALID,258,VALID,0,
2009-12-29, 01:08:04,VALID,998.627,VALID,0,VALID,90.2889,VALID,0,VALID,23.9336,VALID,258,VALID,0,
2009-12-29, 01:09:04,VALID,998.619,VALID,0,VALID,90.1592,VALID,0,VALID,23.9354,VALID,258,VALID,0,
2009-12-29, 01:10:04,VALID,998.608,VALID,0,VALID,90.2126,VALID,0,VALID,23.9159,VALID,258,VALID,0,
2009-12-29, 01:11:04,VALID,998.584,VALID,0,VALID,89.854,VALID,0,VALID,23.8963,VALID,258,VALID,0,
2009-12-29, 01:12:04,VALID,998.579,VALID,0,VALID,89.8617,VALID,0,VALID,23.875,VALID,258,VALID,0,
2009-12-29, 01:13:04,VALID,998.573,VALID,0,VALID,90.1974,VALID,0,VALID,23.8945,VALID,258,VALID,0,
2009-12-29, 01:14:04,VALID,998.554,VALID,0,VALID,89.9914,VALID,0,VALID,23.875,VALID,258,VALID,0,
2009-12-29, 01:15:04,VALID,998.544,VALID,0,VALID,89.8464,VALID,0,VALID,23.875,VALID,258,VALID,0,
2009-12-29, 01:16:04,VALID,998.55,VALID,0,VALID,89.9227,VALID,0,VALID,23.875,VALID,258,VALID,0,
2009-12-29, 01:17:04,VALID,998.54,VALID,0,VALID,90.0982,VALID,0,VALID,23.8963,VALID,258,VALID,0,
2009-12-29, 01:18:04,VALID,998.552,VALID,0,VALID,90.1058,VALID,0,VALID,23.875,VALID,258,VALID,0,
2009-12-29, 01:19:04,VALID,998.546,VALID,0,VALID,90.06,VALID,0,VALID,23.8555,VALID,258,VALID,0,
2009-12-29, 01:20:04,VALID,998.541,VALID,0,VALID,90.2737,VALID,0,VALID,23.875,VALID,258,VALID,0,
2009-12-29, 01:21:04,VALID,998.54,VALID,0,VALID,90.3957,VALID,0,VALID,23.8945,VALID,258,VALID,0,
2009-12-29, 01:22:04,VALID,998.53,VALID,0,VALID,90.4873,VALID,0,VALID,23.875,VALID,252,VALID,0,
2009-12-29, 01:23:04,VALID,998.527,VALID,0,VALID,90.4415,VALID,0,VALID,23.8945,VALID,227,VALID,0,
2009-12-29, 01:24:04,VALID,998.494,VALID,0,VALID,90.4644,VALID,0,VALID,23.9159,VALID,226,VALID,0,
2009-12-29, 01:25:04,VALID,998.495,VALID,0,VALID,90.3194,VALID,0,VALID,23.875,VALID,218,VALID,0.889453,
2009-12-29, 01:26:04,VALID,998.492,VALID,0,VALID,90.5026,VALID,0,VALID,23.914,VALID,220,VALID,0.648438,
2009-12-29, 01:27:04,VALID,998.492,VALID,0,VALID,90.0829,VALID,0,VALID,23.914,VALID,219,VALID,0.490625,
2009-12-29, 01:28:04,VALID,998.475,VALID,0,VALID,89.938,VALID,0,VALID,23.914,VALID,219,VALID,0.432422,
2009-12-29, 01:29:04,VALID,998.463,VALID,0,VALID,89.7854,VALID,0,VALID,23.9336,VALID,219,VALID,0.110547,
2009-12-29, 01:30:04,VALID,998.416,VALID,0,VALID,89.5641,VALID,0,VALID,23.914,VALID,219,VALID,0.475391,
2009-12-29, 01:31:04,VALID,998.404,VALID,0,VALID,89.732,VALID,0,VALID,23.9336,VALID,219,VALID,0,
2009-12-29, 01:32:04,VALID,998.4,VALID,0,VALID,89.4802,VALID,0,VALID,23.9549,VALID,219,VALID,0,
2009-12-29, 01:33:04,VALID,998.375,VALID,0,VALID,89.4268,VALID,0,VALID,23.9336,VALID,219,VALID,0,
2009-12-29, 01:34:04,VALID,998.365,VALID,0,VALID,89.6251,VALID,0,VALID,23.9336,VALID,219,VALID,0,
2009-12-29, 01:35:04,VALID,998.368,VALID,0,VALID,90.1745,VALID,0,VALID,23.9531,VALID,219,VALID,0,
2009-12-29, 01:36:04,VALID,998.337,VALID,0,VALID,90.205,VALID,0,VALID,23.914,VALID,219,VALID,0,
2009-12-29, 01:37:04,VALID,998.28,VALID,0,VALID,89.9303,VALID,0,VALID,23.9159,VALID,219,VALID,0,
2009-12-29, 01:38:04,VALID,998.246,VALID,0,VALID,89.7167,VALID,0,VALID,23.8945,VALID,219,VALID,0,
2009-12-29, 01:39:04,VALID,998.207,VALID,0,VALID,89.8388,VALID,0,VALID,23.914,VALID,219,VALID,0,
2009-12-29, 01:40:04,VALID,998.178,VALID,0,VALID,89.8693,VALID,0,VALID,23.8945,VALID,220,VALID,0,
2009-12-29, 01:41:04,VALID,998.17,VALID,0,VALID,90.0371,VALID,0,VALID,23.8945,VALID,220,VALID,0,
2009-12-29, 01:42:04,VALID,998.141,VALID,0,VALID,89.9074,VALID,0,VALID,23.8963,VALID,220,VALID,0,
2009-12-29, 01:43:04,VALID,998.12,VALID,0,VALID,90.0906,VALID,0,VALID,23.875,VALID,220,VALID,0,
2009-12-29, 01:44:04,VALID,998.07,VALID,0,VALID,90.2279,VALID,0,VALID,23.8768,VALID,220,VALID,0,
2009-12-29, 01:45:04,VALID,998.069,VALID,0,VALID,90.411,VALID,0,VALID,23.836,VALID,216,VALID,0,
2009-12-29, 01:46:04,VALID,998.05,VALID,0,VALID,90.6246,VALID,0,VALID,23.836,VALID,174,VALID,0,
2009-12-29, 01:47:04,VALID,998.059,VALID,0,VALID,90.8154,VALID,0,VALID,23.8555,VALID,178,VALID,0.949219,
2009-12-29, 01:48:04,VALID,998.035,VALID,0,VALID,91.0137,VALID,0,VALID,23.8555,VALID,182,VALID,0.966406,
2009-12-29, 01:49:04,VALID,998.042,VALID,0,VALID,91.0671,VALID,0,VALID,23.875,VALID,174,VALID,0.971094,
2009-12-29, 01:50:04,VALID,998.054,VALID,0,VALID,91.1282,VALID,0,VALID,23.875,VALID,174,VALID,0.922656,
2009-12-29, 01:51:04,VALID,998.06,VALID,0,VALID,91.2655,VALID,0,VALID,23.8945,VALID,178,VALID,0.736719,
2009-12-29, 01:52:04,VALID,998.062,VALID,0,VALID,91.4105,VALID,0,VALID,23.8945,VALID,175,VALID,0.15625,
2009-12-29, 01:53:04,VALID,998.026,VALID,0,VALID,91.2731,VALID,0,VALID,23.8537,VALID,150,VALID,0.902734,
2009-12-29, 01:54:04,VALID,998.022,VALID,0,VALID,91.3342,VALID,0,VALID,23.8555,VALID,141,VALID,0.644531,
2009-12-29, 01:55:04,VALID,998.018,VALID,0,VALID,91.441,VALID,0,VALID,23.8165,VALID,143,VALID,0.51875,
2009-12-29, 01:56:04,VALID,997.98,VALID,0,VALID,91.6088,VALID,0,VALID,23.836,VALID,155,VALID,0.832812,
2009-12-29, 01:57:04,VALID,997.965,VALID,0,VALID,91.7233,VALID,0,VALID,23.8165,VALID,145,VALID,0.770312,
2009-12-29, 01:58:04,VALID,997.941,VALID,0,VALID,91.7614,VALID,0,VALID,23.8183,VALID,138,VALID,0.854688,
2009-12-29, 01:59:04,VALID,997.94,VALID,0,VALID,91.8225,VALID,0,VALID,23.7775,VALID,129,VALID,0.730859,
2009-12-29, 02:00:04,VALID,997.931,VALID,0,VALID,91.8759,VALID,0,VALID,23.7775,VALID,118,VALID,0.500391,
2009-12-29, 02:01:04,VALID,997.988,VALID,0,VALID,91.9217,VALID,0,VALID,23.7579,VALID,118,VALID,0.515234,
2009-12-29, 02:02:04,VALID,997.998,VALID,0,VALID,91.998,VALID,0,VALID,23.7579,VALID,93,VALID,0.479297,
2009-12-29, 02:03:04,VALID,997.991,VALID,0,VALID,92.0514,VALID,0,VALID,23.7579,VALID,70,VALID,0.421875,
2009-12-29, 02:04:04,VALID,997.977,VALID,0,VALID,92.0895,VALID,0,VALID,23.7775,VALID,70,VALID,0,
2009-12-29, 02:05:04,VALID,997.975,VALID,0,VALID,92.12,VALID,0,VALID,23.7775,VALID,70,VALID,0,
2009-12-29, 02:06:04,VALID,997.981,VALID,0,VALID,92.1582,VALID,0.112286,VALID,23.7775,VALID,70,VALID,0,
2009-12-29, 02:07:04,VALID,997.91,VALID,0,VALID,92.2116,VALID,0,VALID,23.7793,VALID,70,VALID,0,
2009-12-29, 02:08:04,VALID,997.866,VALID,0,VALID,92.265,VALID,0,VALID,23.7988,VALID,70,VALID,0,
2009-12-29, 02:09:04,VALID,997.82,VALID,0,VALID,92.326,VALID,0,VALID,23.7775,VALID,70,VALID,0,
2009-12-29, 02:10:04,VALID,997.846,VALID,0,VALID,92.2955,VALID,0,VALID,23.7775,VALID,70,VALID,0,
2009-12-29, 02:11:04,VALID,997.806,VALID,0,VALID,92.265,VALID,0,VALID,23.7579,VALID,70,VALID,0,
2009-12-29, 02:12:04,VALID,997.799,VALID,0,VALID,92.2192,VALID,0,VALID,23.7579,VALID,70,VALID,0,
2009-12-29, 02:13:04,VALID,997.744,VALID,0,VALID,92.1658,VALID,0,VALID,23.7384,VALID,70,VALID,0,
2009-12-29, 02:14:04,VALID,997.74,VALID,0,VALID,92.1353,VALID,0,VALID,23.7402,VALID,70,VALID,0,
2009-12-29, 02:15:04,VALID,997.693,VALID,0,VALID,92.1658,VALID,0,VALID,23.7402,VALID,70,VALID,0,
2009-12-29, 02:16:04,VALID,997.644,VALID,0,VALID,92.204,VALID,0,VALID,23.7402,VALID,70,VALID,0,
2009-12-29, 02:17:04,VALID,997.636,VALID,0,VALID,92.2726,VALID,0,VALID,23.7189,VALID,156,VALID,0,
2009-12-29, 02:18:04,VALID,997.56,VALID,0,VALID,92.2803,VALID,0,VALID,23.7402,VALID,165,VALID,0,
2009-12-29, 02:19:04,VALID,997.54,VALID,0,VALID,92.3566,VALID,0,VALID,23.7189,VALID,160,VALID,0.108594,
2009-12-29, 02:20:04,VALID,997.521,VALID,0,VALID,92.3031,VALID,0,VALID,23.7189,VALID,153,VALID,0.544922,
2009-12-29, 02:21:04,VALID,997.465,VALID,0,VALID,92.3337,VALID,0,VALID,23.7597,VALID,161,VALID,0.768359,
2009-12-29, 02:22:04,VALID,997.467,VALID,0,VALID,92.3337,VALID,0,VALID,23.7775,VALID,172,VALID,0.865625,
2009-12-29, 02:23:04,VALID,997.458,VALID,0,VALID,92.3794,VALID,0,VALID,23.8183,VALID,185,VALID,0.689062,
2009-12-29, 02:24:04,VALID,997.437,VALID,0,VALID,92.2879,VALID,0,VALID,23.8378,VALID,184,VALID,1.16523,
2009-12-29, 02:25:04,VALID,997.422,VALID,0,VALID,92.2116,VALID,0,VALID,23.8573,VALID,204,VALID,0.577344,
2009-12-29, 02:26:04,VALID,997.418,VALID,0,VALID,92.0743,VALID,0,VALID,23.8768,VALID,204,VALID,0.4875,
2009-12-29, 02:27:04,VALID,997.418,VALID,0,VALID,91.9293,VALID,0,VALID,23.8768,VALID,212,VALID,0.778125,
2009-12-29, 02:28:04,VALID,997.418,VALID,0,VALID,91.7614,VALID,0,VALID,23.875,VALID,223,VALID,0.853125,
2009-12-29, 02:29:04,VALID,997.423,VALID,0,VALID,91.6394,VALID,0,VALID,23.8945,VALID,223,VALID,0.537109,
2009-12-29, 02:30:04,VALID,997.4,VALID,0,VALID,91.5249,VALID,0,VALID,23.9354,VALID,222,VALID,0.940625,
2009-12-29, 02:31:04,VALID,997.371,VALID,0,VALID,91.3647,VALID,0,VALID,23.914,VALID,231,VALID,1.20977,
2009-12-29, 02:32:04,VALID,997.377,VALID,0,VALID,91.2731,VALID,0,VALID,23.9744,VALID,221,VALID,1.09961,
2009-12-29, 02:33:04,VALID,997.363,VALID,0,VALID,91.1892,VALID,0,VALID,23.9744,VALID,225,VALID,0.832422,
2009-12-29, 02:34:04,VALID,997.371,VALID,0,VALID,91.2579,VALID,0,VALID,23.9744,VALID,222,VALID,0.625391,
2009-12-29, 02:35:04,VALID,997.313,VALID,0,VALID,91.2655,VALID,0,VALID,23.9744,VALID,235,VALID,0.983984,
2009-12-29, 02:36:04,VALID,997.284,VALID,0,VALID,91.2426,VALID,0,VALID,23.9336,VALID,224,VALID,0.782422,
2009-12-29, 02:37:04,VALID,997.238,VALID,0,VALID,91.3418,VALID,0,VALID,23.9336,VALID,206,VALID,0.648828,
2009-12-29, 02:38:04,VALID,997.156,VALID,0,VALID,91.2808,VALID,0,VALID,23.8945,VALID,219,VALID,1.11563,
2009-12-29, 02:39:04,VALID,997.163,VALID,0,VALID,91.3952,VALID,0,VALID,23.9159,VALID,220,VALID,0.985937,
2009-12-29, 02:40:04,VALID,997.156,VALID,0,VALID,91.4334,VALID,0,VALID,23.8963,VALID,218,VALID,1.09102,
2009-12-29, 02:41:04,VALID,997.136,VALID,0,VALID,91.5478,VALID,0,VALID,23.8768,VALID,211,VALID,0.954297,
2009-12-29, 02:42:04,VALID,997.135,VALID,0,VALID,91.5554,VALID,0,VALID,23.875,VALID,189,VALID,0.986719,
2009-12-29, 02:43:04,VALID,997.149,VALID,0,VALID,91.4868,VALID,0,VALID,23.8768,VALID,202,VALID,0.588672,
2009-12-29, 02:44:04,VALID,997.152,VALID,0,VALID,91.5326,VALID,0,VALID,23.8768,VALID,202,VALID,0.383203,
2009-12-29, 02:45:04,VALID,997.149,VALID,0,VALID,91.4944,VALID,0,VALID,23.8768,VALID,202,VALID,0,
2009-12-29, 02:46:04,VALID,997.172,VALID,0,VALID,91.4486,VALID,0,VALID,23.8555,VALID,200,VALID,0,
2009-12-29, 02:47:04,VALID,997.192,VALID,0,VALID,91.4105,VALID,0,VALID,23.8573,VALID,175,VALID,0,
2009-12-29, 02:48:04,VALID,997.236,VALID,0,VALID,91.3647,VALID,0,VALID,23.8573,VALID,184,VALID,0,
2009-12-29, 02:49:04,VALID,997.278,VALID,0,VALID,91.3571,VALID,0,VALID,23.8573,VALID,160,VALID,0,
2009-12-29, 02:50:04,VALID,997.302,VALID,0,VALID,91.3189,VALID,0,VALID,23.8573,VALID,160,VALID,0,
2009-12-29, 02:51:04,VALID,997.306,VALID,0,VALID,91.3876,VALID,0,VALID,23.836,VALID,145,VALID,0.399609,
2009-12-29, 02:52:04,VALID,997.313,VALID,0,VALID,91.4563,VALID,0,VALID,23.8165,VALID,132,VALID,0.64375,
2009-12-29, 02:53:04,VALID,997.317,VALID,0,VALID,91.5173,VALID,0,VALID,23.7988,VALID,128,VALID,0.60625,
2009-12-29, 02:54:04,VALID,997.334,VALID,0,VALID,91.7385,VALID,0,VALID,23.7775,VALID,112,VALID,0.706641,
2009-12-29, 02:55:04,VALID,997.32,VALID,0,VALID,91.914,VALID,0,VALID,23.7579,VALID,112,VALID,0.979688,
2009-12-29, 02:56:04,VALID,997.321,VALID,0,VALID,92.0285,VALID,0,VALID,23.7597,VALID,106,VALID,0.786328,
2009-12-29, 02:57:04,VALID,997.304,VALID,0,VALID,92.1277,VALID,0,VALID,23.7384,VALID,111,VALID,0.694141,
2009-12-29, 02:58:04,VALID,997.342,VALID,0,VALID,92.204,VALID,0,VALID,23.7384,VALID,106,VALID,0.830078,
2009-12-29, 02:59:04,VALID,997.339,VALID,0,VALID,92.2116,VALID,0,VALID,23.7384,VALID,112,VALID,0.662109,
2009-12-29, 03:00:04,VALID,997.371,VALID,0,VALID,92.1963,VALID,0,VALID,23.7384,VALID,107,VALID,0.535937,
2009-12-29, 03:01:04,VALID,997.4,VALID,0,VALID,92.204,VALID,0.112286,VALID,23.7384,VALID,105,VALID,0.526563,
2009-12-29, 03:02:04,VALID,997.413,VALID,0,VALID,92.2268,VALID,0,VALID,23.7775,VALID,105,VALID,0,
2009-12-29, 03:03:04,VALID,997.407,VALID,0,VALID,92.1658,VALID,0,VALID,23.7775,VALID,106,VALID,0,
2009-12-29, 03:04:04,VALID,997.369,VALID,0,VALID,92.059,VALID,0,VALID,23.7775,VALID,106,VALID,0,
2009-12-29, 03:05:04,VALID,997.389,VALID,0,VALID,91.9751,VALID,0,VALID,23.8165,VALID,110,VALID,0,
2009-12-29, 03:06:04,VALID,997.411,VALID,0,VALID,91.914,VALID,0.112286,VALID,23.8165,VALID,116,VALID,0,
2009-12-29, 03:07:04,VALID,997.401,VALID,0,VALID,91.853,VALID,0,VALID,23.8165,VALID,111,VALID,0,
2009-12-29, 03:08:04,VALID,997.377,VALID,0,VALID,91.708,VALID,0,VALID,23.836,VALID,111,VALID,0,
2009-12-29, 03:09:04,VALID,997.434,VALID,0,VALID,91.708,VALID,0,VALID,23.836,VALID,111,VALID,0,
2009-12-29, 03:10:04,VALID,997.436,VALID,0,VALID,91.6928,VALID,0,VALID,23.8555,VALID,111,VALID,0,
2009-12-29, 03:11:04,VALID,997.439,VALID,0,VALID,91.6775,VALID,0,VALID,23.8768,VALID,111,VALID,0,
2009-12-29, 03:12:04,VALID,997.431,VALID,0,VALID,91.7462,VALID,0,VALID,23.8555,VALID,111,VALID,0,
2009-12-29, 03:13:04,VALID,997.447,VALID,0,VALID,91.8148,VALID,0,VALID,23.8555,VALID,111,VALID,0,
2009-12-29, 03:14:04,VALID,997.429,VALID,0,VALID,91.7691,VALID,0,VALID,23.836,VALID,80,VALID,0,
2009-12-29, 03:15:04,VALID,997.454,VALID,0,VALID,91.8301,VALID,0,VALID,23.836,VALID,78,VALID,0,
2009-12-29, 03:16:04,VALID,997.456,VALID,0,VALID,91.5326,VALID,0,VALID,23.836,VALID,116,VALID,0,
2009-12-29, 03:17:04,VALID,997.462,VALID,0,VALID,91.4257,VALID,0,VALID,23.8555,VALID,116,VALID,0,
2009-12-29, 03:18:04,VALID,997.481,VALID,0,VALID,91.4257,VALID,0,VALID,23.8555,VALID,116,VALID,0,
2009-12-29, 03:19:04,VALID,997.492,VALID,0,VALID,91.3571,VALID,0,VALID,23.8555,VALID,116,VALID,0,
2009-12-29, 03:20:04,VALID,997.496,VALID,0,VALID,91.5249,VALID,0,VALID,23.8945,VALID,61,VALID,0,
2009-12-29, 03:21:04,VALID,997.509,VALID,0,VALID,91.6394,VALID,0,VALID,23.8945,VALID,33,VALID,0.295312,
2009-12-29, 03:22:04,VALID,997.49,VALID,0,VALID,91.5326,VALID,0.112286,VALID,23.8945,VALID,33,VALID,0.430469,
2009-12-29, 03:23:04,VALID,997.507,VALID,0,VALID,91.4944,VALID,0,VALID,23.875,VALID,33,VALID,0.757813,
2009-12-29, 03:24:04,VALID,997.504,VALID,0,VALID,91.2503,VALID,0,VALID,23.875,VALID,18,VALID,0.360547,
2009-12-29, 03:25:04,VALID,997.477,VALID,0,VALID,91.2503,VALID,0,VALID,23.914,VALID,30,VALID,0.145703,
2009-12-29, 03:26:04,VALID,997.494,VALID,0,VALID,91.4105,VALID,0,VALID,23.9531,VALID,221,VALID,0.427344,
2009-12-29, 03:27:04,VALID,997.473,VALID,0,VALID,91.2426,VALID,0,VALID,23.9336,VALID,227,VALID,0.483203,
2009-12-29, 03:28:04,VALID,997.469,VALID,0,VALID,91.296,VALID,0,VALID,23.9531,VALID,227,VALID,0,
2009-12-29, 03:29:04,VALID,997.442,VALID,0,VALID,91.3571,VALID,0,VALID,23.9726,VALID,267,VALID,0,
2009-12-29, 03:30:04,VALID,997.42,VALID,0,VALID,91.4257,VALID,0.112286,VALID,23.9531,VALID,267,VALID,0,
2009-12-29, 03:31:04,VALID,997.42,VALID,0,VALID,91.4944,VALID,0,VALID,23.9336,VALID,267,VALID,0,
2009-12-29, 03:32:04,VALID,997.435,VALID,0,VALID,91.5783,VALID,0,VALID,23.914,VALID,267,VALID,0,
2009-12-29, 03:33:04,VALID,997.427,VALID,0,VALID,91.6623,VALID,0,VALID,23.914,VALID,267,VALID,0,
2009-12-29, 03:34:04,VALID,997.43,VALID,0,VALID,91.6928,VALID,0,VALID,23.8945,VALID,267,VALID,0,
2009-12-29, 03:35:04,VALID,997.41,VALID,0,VALID,91.647,VALID,0,VALID,23.875,VALID,267,VALID,0,
2009-12-29, 03:36:04,VALID,997.422,VALID,0,VALID,91.6546,VALID,0,VALID,23.8963,VALID,170,VALID,0,
2009-12-29, 03:37:04,VALID,997.416,VALID,0,VALID,91.6088,VALID,0,VALID,23.8945,VALID,125,VALID,0,
2009-12-29, 03:38:04,VALID,997.429,VALID,0,VALID,91.4334,VALID,0,VALID,23.875,VALID,118,VALID,0.941797,
2009-12-29, 03:39:04,VALID,997.451,VALID,0,VALID,91.174,VALID,0.112286,VALID,23.914,VALID,106,VALID,0.884375,
2009-12-29, 03:40:04,VALID,997.49,VALID,0,VALID,91.0061,VALID,0.112286,VALID,23.9531,VALID,105,VALID,0.810938,
2009-12-29, 03:41:04,VALID,997.492,VALID,0,VALID,90.9069,VALID,0,VALID,23.9726,VALID,99,VALID,0.571094,
2009-12-29, 03:42:04,VALID,997.526,VALID,0,VALID,91.0977,VALID,0,VALID,23.9921,VALID,22,VALID,0.742578,
2009-12-29, 03:43:04,VALID,997.527,VALID,0,VALID,91.3342,VALID,0,VALID,23.9939,VALID,24,VALID,1.24102,
2009-12-29, 03:44:04,VALID,997.57,VALID,0,VALID,91.3571,VALID,0,VALID,23.9939,VALID,30,VALID,1.12031,
2009-12-29, 03:45:04,VALID,997.596,VALID,0,VALID,91.38,VALID,0,VALID,23.9549,VALID,47,VALID,1.22148,
2009-12-29, 03:46:04,VALID,997.619,VALID,0,VALID,91.4791,VALID,0,VALID,23.9549,VALID,54,VALID,1.11797,
2009-12-29, 03:47:04,VALID,997.666,VALID,0,VALID,91.6165,VALID,0,VALID,23.9744,VALID,57,VALID,1.14648,
2009-12-29, 03:48:04,VALID,997.663,VALID,0,VALID,91.6699,VALID,0,VALID,23.9744,VALID,61,VALID,0.84375,
2009-12-29, 03:49:04,VALID,997.701,VALID,0,VALID,91.6088,VALID,0,VALID,23.9549,VALID,59,VALID,0.985937,
2009-12-29, 03:50:04,VALID,997.669,VALID,0,VALID,91.7157,VALID,0,VALID,23.9567,VALID,66,VALID,0.855078,
2009-12-29, 03:51:04,VALID,997.695,VALID,0,VALID,91.6928,VALID,0,VALID,23.9354,VALID,58,VALID,0.594141,